Regional Weather Roundup
Issued by NWS

Home | Current Version | Previous Version | Text Only | Print | Product List | Glossary On
Versions: 1 2 3 4 5 6 7 8 9 10 11 12 13 14 15 16 17 18 19 20 21 22 23 24 25 26 27 28 29 30 31 32 33 34 35 36 37 38 39 40 41 42 43 44 45 46 47 48 49 50
000
ASUS43 KLOT 300308
RWRIL

ILLINOIS REGIONAL WEATHER ROUNDUP
NATIONAL WEATHER SERVICE CHICAGO/ROMEOVILLE IL
1000 PM CDT MON AUG 29 2016

NOTE: "FAIR" INDICATES FEW OR NO CLOUDS BELOW 12,000 FEET WITH NO
SIGNIFICANT WEATHER AND/OR OBSTRUCTIONS TO VISIBILITY.

* THESE STATIONS ARE NOT UNDER NWS QUALITY CONTROL. THEY ALSO MAY NOT
  REPORT WEATHER SUCH AS PRECIPITATION OR FOG.

ILZ001-002-007-009-015-016-024-300400-
NORTHWEST ILLINOIS

CITY           SKY/WX    TMP DP  RH WIND       PRES   REMARKS
MOLINE         CLOUDY    74  71  91 E7        30.16S
STERLING*      CLEAR     70  69  97 CALM      30.18S FOG
SAVANNA*       PTCLDY    70  68  94 N3        30.17S
$$

ILZ003-004-008-010-011-017-018-300400-
NORTH CENTRAL ILLINOIS

CITY           SKY/WX    TMP DP  RH WIND       PRES   REMARKS
ROCKFORD       PTCLDY    71  69  93 NE3       30.19R
FREEPORT*      FOG       67  66  99 CALM      30.19S VSB 1/4
ROCHELLE*      CLEAR     69  69  99 CALM      30.18S FOG
DE KALB*       CLOUDY    71  69  96 E7        30.19S FOG
$$

ILZ005-006-012>014-019>023-300400-
NORTHEAST ILLINOIS

CITY           SKY/WX    TMP DP  RH WIND       PRES   REMARKS
CHICAGO-OHARE  CLOUDY    74  72  93 CALM      30.17S
CHICAGO-MIDWAY CLOUDY    78  71  79 E9        30.16S HX  80
AURORA         PTCLDY    73  71  93 NE6       30.18S FOG
LANSING*       PTCLDY    75  74  95 NE5       30.17R
JOLIET*        CLEAR     74  73  96 N3        30.17R FOG
WAUKEGAN       PTCLDY    72  71  97 CALM      30.17S
DUPAGE AIRPORT PTCLDY    72  69  90 CALM      30.18R FOG
KANKAKEE*      CLEAR     75  73  94 CALM      30.17S
WHEELING       CLOUDY    73  72  96 CALM      30.19R FOG
MORRIS*        CLEAR     71  69  95 CALM      30.16S
ROMEOVILLE*    CLEAR     73  73 100 NE5       30.17R FOG
$$

LMZ740>746-300400-
SOUTHERN LAKE MICHIGAN

STATION/POSITION SKY/WX   TEMP    WIND        PRES    VSBY  WAVE
                          AIR SEA DIR/SP/G                  HT/PER
                          (F)     (DEG/KT/KT) (MB)    (MI)  (FT/S)
SOUTHERN BUOY              76 77  100/  6/  6 1021.0F         0
WILMETTE HARBOR            74 74  350/  2/  4   N/A           1
HARRISON CRIB              75      40/  6/  7   N/A
BURNHAM HARBOR             74     350/  3/  6   N/A
CALUMET HARBOR             74                 1021.1F
BURNS HARBOR               72      80/  8/ 10 1022.0S
MICHIGAN CITY              76      40/  3/  4   N/A
MICHIGAN CITY 6N           75 76   90/  6/  6   N/A           1/ 2
ST. JOSEPH                 76 76   90/  6/  8 1021.2F         1
$$

ILZ025>027-034>036-040-047-049-050-058-095>099-300400-
WEST-CENTRAL ILLINOIS

CITY           SKY/WX    TMP DP  RH WIND       PRES   REMARKS
QUINCY         CLEAR     76  72  87 NE3       30.16R
GALESBURG*     CLOUDY    73  70  92 CALM      30.16S
MACOMB*        PTCLDY    73  71  95 CALM      30.18F
JACKSONVILLE*  CLEAR     77  74  92 E5        30.15R
PITTSFIELD*    CLEAR     75  73  96 N3        30.16R
$$

ILZ028>032-037-038-041>044-048-051>054-059>061-300400-
CENTRAL ILLINOIS

CITY           SKY/WX    TMP DP  RH WIND       PRES   REMARKS
PONTIAC        CLEAR     76  76  99 CALM      30.17R
BLOOMINGTON    PTCLDY    76  72  87 E5        30.18S
DECATUR        PTCLDY    76  73  91 CALM      30.16S
PEORIA         PTCLDY    75  74  96 NE7       30.16S
LACON*         PTCLDY    72  69  89 CALM      30.15S
LINCOLN*       PTCLDY    77  75  95 CALM      30.16S
SPRINGFIELD    CLEAR     77  74  90 CALM      30.15S
TAYLORVILLE    CLEAR     76  73  90 SE3       30.16S
$$

ILZ033-039-045-046-055>057-062-063-300400-
EAST-CENTRAL ILLINOIS

CITY           SKY/WX    TMP DP  RH WIND       PRES   REMARKS
CHAMPAIGN      CLEAR     75  72  90 E3        30.17R
RANTOUL*       CLEAR     79  75  89 E3        30.17R HX  82
MATTOON        CLEAR     75  71  87 CALM      30.16R
PARIS*         CLEAR     73  73 100 CALM      30.17R FOG
$$

ILZ079-100>102-300400-
SOUTHWEST ILLINOIS

CITY           SKY/WX    TMP DP  RH WIND       PRES   REMARKS
ALTON          PTCLDY    79  73  83 E6        30.14S HX  82
BELLEVILLE     CLEAR     79  75  87 E3        30.13R HX  83
CAHOKIA*       CLEAR     79  73  82 SE5       30.13R HX  82
SPARTA*        CLEAR     76  73  89 CALM      30.14S
$$

ILZ064>066-069>071-074>076-080>082-084>086-088>090-092>094-300400-
SOUTH-CENTRAL ILLINOIS

CITY           SKY/WX    TMP DP  RH WIND       PRES   REMARKS
CARBONDALE     CLEAR     75  72  90 NE3       30.13R
CAIRO*         CLEAR     76  74  94 CALM      30.10S
EFFINGHAM*     CLEAR     74  74 100 CALM      30.17S FOG
MARION         CLEAR     79  73  83 N3        30.14R HX  82
MT. VERNON     CLEAR     77  70  78 N3        30.15R
CENTRALIA*     CLEAR     74  74  99 CALM      30.13S FOG
SALEM*         CLEAR     77  73  86 CALM      30.15S
METROPOLIS*    CLEAR     78  75  90 CALM      30.12R HX  80
$$

ILZ067-068-072-073-078-083-087-091-300400-
SOUTHEAST ILLINOIS

CITY           SKY/WX    TMP DP  RH WIND       PRES   REMARKS
LAWRENCEVILLE  CLEAR     76  76 100 E3        30.15R
FLORA*         CLEAR     76  74  93 CALM      30.15R
FAIRFIELD*       N/A     77  73  85 CALM      30.13S
HARRISBURG*    CLEAR     79  73  82 NE6       30.13R HX  83
ROBINSON*      CLEAR     71  71 100 CALM      30.15S FOG
CARMI*         CLEAR     74  74  98 CALM      30.13S
$$

ABBREVIATIONS USED IN REMARKS
   TC - TEMPERATURE IN CELSIUS
  WCI - WIND CHILL INDEX
   HX - HEAT INDEX
  VSB - VISIBILITY
$$





USA.gov is the U.S. government's official web portal to all federal, state and local government web resources and services.